Weather in Kamenka

Russia / Primorsky Krai     44°20′44″N   133°56′01″E
temp.,
°C
wind,
m/s
gust,
m/s
humid.,
%
clouds,
%
prec.,
mm/h
press.,
hPa
HPBL,
m
19 may, wed
wed1901:00+11s22590 0.0 100831
04:00+10sse22510 0.0 100826
07:00+12s23500 0.0 100858
10:00+21ssw34270 0.0 1006764
13:00+25sw33220 0.0 10042175
16:00+26w44253 0.0 10042934
19:00+21wnw264518 0.0 1005269
22:00+13s226983 0.0 100821
20 may, thu
thu2001:00+13s2273100 0.0 100923
04:00+12sse22666 0.0 100928
07:00+15s23600 0.0 101059
10:00+24sw25370 0.0 1008702
13:00+29wsw57230 0.0 10072719
16:00+29w57185 0.0 10063414
19:00+24sw3738100 0.0 1007265
22:00+17ssw2258100 0.0 101027
21 may, fri
fri2101:00+15s2364100 0.0 100946
04:00+14sse2258100 0.0 100913
07:00+15se1153100 0.0 100820
10:00+23sw0130100 0.0 1007570
13:00+27n2421100 0.0 10042387
16:00+27ese3521100 0.0 10023348
19:00+21sse2247100 0.0 100224
22:00+16s2155100 0.0 100418
22 may, sat
sat2201:00+14sse1160100 0.0 100410
04:00+14ene1160100 0.0 100212
07:00+15ene1158100 0.0 100337
10:00+19nw1142100 0.0 1003510
13:00+21nnw2337100 0.0 10031030
16:00+21ene1246100 0.1 1003577
19:00+20se2264100 0.3 100578
22:00+12se337851 0.5 100950
23 may, sun
sun2301:00+10se33807 0.0 101051
04:00+10se22825 0.0 101136
07:00+12se23721 0.0 101285
10:00+21s23414 0.0 1010971
13:00+25ssw453389 0.0 10081832
16:00+25ssw3433100 0.0 10071874
19:00+21ssw2552100 0.0 1007524
22:00+15s2373100 0.0 100953